Regional Weather Roundup
Issued by NWS

Home | Current Version | Previous Version | Text Only | Print | Product List | Glossary On
Versions: 1 2 3 4 5 6 7 8 9 10 11 12 13 14 15 16 17 18 19 20 21 22 23 24 25 26 27 28 29 30 31 32 33 34 35 36 37 38 39 40 41 42 43 44 45 46 47 48 49 50
000
ASUS42 KKEY 011910
RWRKEY

FLORIDA REGIONAL WEATHER ROUNDUP FOR THE FLORIDA KEYS
NATIONAL WEATHER SERVICE KEY WEST FLORIDA
300 PM EDT WED JUL 01 2015

...SOUTH FLORIDA AND THE KEYS...

CITY           SKY/WX    TMP DP  RH WIND       PRES   REMARKS
FORT MYERS     MOSUNNY   92  70  48 W13       30.08F HX  97
SW REGIONAL AP MOSUNNY   94  67  41 SW8       30.09F HX  97
NAPLES         MOSUNNY   89  75  63 W12       30.09F HX  99
MIAMI          MOSUNNY   91  72  53 SE10      30.10F HX  98
WEST KENDALL   MOSUNNY   91  73  55 E7        30.10F HX  99
HOMESTEAD      SUNNY     91  74  58 E10G17    30.10F HX 100
MARATHON       MOSUNNY   92  76  59 SE8       30.09F HX 104
BOCA CHICA NAS PTSUNNY   91  76  61 E15       30.09F HX 103
KEY WEST INTL  MOSUNNY   91  78  65 E16       30.09F HX 106

...INTERNATIONAL WEATHER...

CITY           SKY/WX    TMP DP  RH WIND       PRES   REMARKS
NASSAU BAHAMAS PTSUNNY   88  73  62 SE9       30.13F HX  96
CANCUN MEXICO  MOSUNNY   88  79  74 E8        30.04F HX 102
COZUMEL MEXICO PTSUNNY   82  77  83 E13       30.04F HX  91

ADJACENT COASTAL WATERS...

STATION/POSITION TIME  SKY/WX   TEMP    WIND        PRES    WAVE
                                AIR SEA DIR/SP/G            HT/PER
                 (UTC)          (F)     (DEG/KT/KT) (MB)    (FT/S)
PULASKI SHOAL LI 1800            86     100/ 13/ 14 1019.5
SAND KEY         1850            85     110/ 14/ 17 1019.0F
SOMBRERO KEY     1800            86     110/ 12/ 12 1020.3
LONG KEY         1800            86 89  120/ 12/ 14 1020.4
MOLASSES REEF    1800            85 86  110/ 12/ 14 1019.8
FOWEY ROCKS      NOT AVBL

$$


USA.gov is the U.S. government's official web portal to all federal, state and local government web resources and services.